TimeHST,TemperatureF,Dew PointF,Humidity,Sea Level PressureIn,VisibilityMPH,Wind Direction,Wind SpeedMPH,Gust SpeedMPH,PrecipitationIn,Events,Conditions,WindDirDegrees,DateUTC
12:56 AM,68.9,63.9,84,30.01,10.0,NNE,8.1,-,N/A,,Clear,30,2013-11-04 10:56:00
1:56 AM,68.9,63.9,84,30.00,10.0,NE,10.4,18.4,N/A,,Clear,50,2013-11-04 11:56:00
2:56 AM,70.0,61.9,75,29.98,10.0,ENE,11.5,21.9,N/A,,Clear,70,2013-11-04 12:56:00
3:56 AM,68.9,63.9,84,29.98,10.0,ENE,15.0,18.4,N/A,,Partly Cloudy,60,2013-11-04 13:56:00
4:56 AM,65.8,63.0,90,30.00,10.0,East,8.1,-,N/A,,Clear,80,2013-11-04 14:56:00
5:56 AM,63.9,61.9,93,30.01,10.0,East,8.1,-,N/A,,Clear,80,2013-11-04 15:56:00
6:56 AM,64.9,63.0,93,30.03,10.0,NNE,5.8,-,N/A,,Clear,30,2013-11-04 16:56:00
7:56 AM,73.9,64.9,73,30.02,10.0,ENE,13.8,-,N/A,,Clear,60,2013-11-04 17:56:00
8:56 AM,77.0,64.9,66,30.02,10.0,ENE,13.8,-,N/A,,Clear,60,2013-11-04 18:56:00
9:56 AM,79.9,64.9,60,30.03,10.0,NNE,15.0,-,N/A,,Clear,30,2013-11-04 19:56:00
10:56 AM,77.0,64.4,65,30.08,10.0,NE,16.1,21.9,N/A,,Mostly Cloudy,40,2013-11-04 20:56:00
11:21 AM,75.2,64.4,69,30.08,10.0,Variable,4.6,-,N/A,,Overcast,0,2013-11-04 21:21:00
11:56 AM,77.0,63.9,64,30.00,10.0,ENE,15.0,-,N/A,,Overcast,60,2013-11-04 21:56:00
12:08 PM,78.8,64.4,61,30.05,10.0,ENE,11.5,-,N/A,,Mostly Cloudy,60,2013-11-04 22:08:00
12:56 PM,79.0,64.9,62,29.97,10.0,NE,15.0,-,N/A,,Mostly Cloudy,40,2013-11-04 22:56:00
1:56 PM,77.0,64.4,65,30.01,10.0,NNE,13.8,-,N/A,,Mostly Cloudy,30,2013-11-04 23:56:00
2:56 PM,77.0,64.9,66,29.94,10.0,NNE,17.3,21.9,N/A,,Mostly Cloudy,30,2013-11-05 00:56:00
3:56 PM,77.9,64.9,64,29.94,10.0,NE,18.4,-,N/A,,Mostly Cloudy,40,2013-11-05 01:56:00
4:56 PM,75.9,65.8,71,29.96,10.0,NE,18.4,21.9,N/A,,Clear,40,2013-11-05 02:56:00
5:56 PM,72.0,64.9,78,29.99,10.0,NE,17.3,24.2,N/A,,Partly Cloudy,40,2013-11-05 03:56:00
6:56 PM,72.0,64.9,78,30.00,10.0,NE,18.4,-,N/A,,Mostly Cloudy,50,2013-11-05 04:56:00
7:56 PM,72.0,64.9,78,30.00,10.0,NE,17.3,-,N/A,,Partly Cloudy,50,2013-11-05 05:56:00
8:56 PM,70.9,65.8,84,30.01,10.0,NE,10.4,-,N/A,,Clear,40,2013-11-05 06:56:00
9:56 PM,70.9,66.9,87,30.00,10.0,NE,11.5,-,N/A,,Clear,50,2013-11-05 07:56:00
10:56 PM,70.0,64.9,84,30.01,10.0,ENE,10.4,-,N/A,,Clear,60,2013-11-05 08:56:00
11:56 PM,70.0,64.9,84,30.00,10.0,East,9.2,-,N/A,,Clear,80,2013-11-05 09:56:00